Regional Weather Roundup
Issued by NWS Kansas City/Pleasant Hill, MO

Home | Current Version | Previous Version | Graphics & Text | Print | Product List | Glossary Off
Versions: 1 2 3 4 5 6 7 8 9 10 11 12 13 14 15 16 17 18 19 20 21 22 23 24 25 26 27 28 29 30 31 32 33 34 35 36 37 38 39 40 41 42 43 44 45 46 47 48 49 50

000
ASUS43 KEAX 220610
RWREAX

WEATHER ROUNDUP FOR EASTERN KANSAS AND NORTHWEST MISSOURI
NATIONAL WEATHER SERVICE KANSAS CITY/PLEASANT HILL MO
100 AM CDT SUN APR 22 2018

KSZ040-057-103>105-MOZ028-029-037-043-220700-
...KANSAS CITY METROPOLITAN AREA...

CITY           SKY/WX    TMP DP  RH WIND       PRES   REMARKS
K.C. INTL      CLOUDY    53  30  41 NE13      30.13F
6HR MIN TEMP:  53; 6HR MAX TEMP:  61;

K.C. DOWNTOWN  CLOUDY    57  28  33 NE8       30.12F
6HR MIN TEMP:  57; 6HR MAX TEMP:  65;

LEES SUMMIT    CLOUDY    55  31  39 NE9       30.13S
6HR MIN TEMP:  55; 6HR MAX TEMP:  63;

OLATHE - IXD   CLOUDY    55  32  41 NE6       30.12F
6HR MIN TEMP:  51; 6HR MAX TEMP:  63;

OLATHE - OJC   CLOUDY    54  30  40 NE8       30.12R
6HR MIN TEMP:  54; 6HR MAX TEMP:  61;

LAWRENCE       CLOUDY    54  33  45 NE8       30.12F

$$

MOZ001>008-011>017-020>025-030>033-038>040-044>046-053-054-220700-
...NORTHERN AND CENTRAL MISSOURI...

CITY           SKY/WX    TMP DP  RH WIND       PRES   REMARKS
ST. JOSEPH     CLOUDY    54  30  40 NE13      30.16F
6HR MIN TEMP:  54; 6HR MAX TEMP:  60;

MOSBY          CLOUDY    54  28  37 NE5       30.14F
WARRENSBURG    CLOUDY    54  32  43 N7        30.12R
WHITEMAN AFB   CLOUDY    55  34  46 NE6       30.07F
6HR MIN TEMP:  55; 6HR MAX TEMP:  63;

CLINTON        LGT RAIN  55  36  47 E9        30.11R
SEDALIA        CLOUDY    57  36  45 E7        30.13F
6HR MIN TEMP:  57; 6HR MAX TEMP:  63;

WARSAW         NOT AVBL
CHILLICOTHE      N/A     54  30  40 NE8       30.18F
6HR MIN TEMP:  54; 6HR MAX TEMP:  59;

KIRKSVILLE     CLOUDY    52  31  44 E12       30.20F
6HR MIN TEMP:  51; 6HR MAX TEMP:  57;


$$

MOZ041-047>049-056>058-063>065-088>090-097-220700-
...EASTERN AND SOUTHERN MISSOURI...

CITY           SKY/WX    TMP DP  RH WIND       PRES   REMARKS
ST. LOUIS INTL CLOUDY    57  33  40 E13       30.18F
6HR MIN TEMP:  57; 6HR MAX TEMP:  63;

SPIRIT OF STL  CLOUDY    57  35  43 E10       30.16F
COLUMBIA       CLOUDY    57  32  38 E12       30.13S
JEFFERSON CITY CLOUDY    59  32  36 E6        30.13S
ROLLA          CLOUDY    57  33  40 E12       30.12S
OSAGE BEACH    CLOUDY    59  37  44 NE10      30.10F
SPRINGFIELD    CLOUDY    55  47  74 NE9       30.03F
BRANSON        CLOUDY    54  46  76 E7        30.03F
JOPLIN         CLOUDY    52  51  97 N3        30.04F
WEST PLAINS    CLOUDY    60  36  40 E8        30.08F

$$

IAZ060-094-KSZ022-034>040-054-083-096-NEZ052-066-093-220700-
...KANSAS...SOUTHEAST NEBRASKA AND IOWA...

CITY           SKY/WX    TMP DP  RH WIND       PRES   REMARKS
TOPEKA         CLOUDY    51  38  60 N6        30.12F
6HR MIN TEMP:  47; 6HR MAX TEMP:  51; 6HR PCP: TRACE;

MANHATTAN      CLOUDY    47  43  86 NW3       30.16F
EMPORIA        LGT RAIN  45  43  93 N8        30.11F
CHANUTE        LGT RAIN  48  46  93 N8        30.09S FOG
WICHITA        LGT RAIN  45  44  97 N13       30.13F
OMAHA          CLOUDY    52  27  38 E12       30.24S
LINCOLN        CLOUDY    47  34  60 NW6       30.24F
FALLS CITY     CLOUDY    50  32  50 NE6       30.19S
LAMONI         CLOUDY    50  29  44 NE10      30.22F
DES MOINES     CLOUDY    50  32  50 E15       30.28S

$$




USA.gov is the U.S. government's official web portal to all federal, state and local government web resources and services.